Showing default

ELEKTRON 3, 829

Orbit data source: Space-Track

ELEKTRON 3, 829 is a payload satellite owned by OKB-1 (CIS) that was launched on Fri, 10 Jul 1964 UTC via a VOSTOK 8K72 launch vehicle from the Tyuratam Missile And Space Complex (TTMTR). Payload-class satellites include a variety of spacecraft equipped with specific instruments for various scientific and technological missions. These include communications satellites like Starlink; space stations such as the ISS; scientific satellites like the Hubble; Earth observation satellites from companies like Planet Labs, Umbra, and HawkEye 360; GPS; miniature CubeSats for education and research; and military/defense satellites.

Loading next visibility...
Identifier
829, 1964-038A
Orbit
Active
Country
Flag of CISCIS
Related business
Manufacturer
OKB-1
Mission
Civil Science
Bus & Motor
OBJECT D, Unknown motor
Mass
350 kg wet, 350 kg dry
Launch date (UTC)
1964-07-10 (61 years ago)
Launch vehicle
VOSTOK 8K72
Launch site
Tyuratam Missile And Space Complex (TTMTR)
Object type
Payload
Rocket body
Debris
Shape & HBR
Cyl + 6 Pan, 2.0 m
Radar Cross Section
2.718 m², Large (>1 m²)

Expand to show TLE details & history
Last TLE update: 12 hours ago

TLE from 12 hours ago
0 ELEKTRON 3
1 00829U 64038A   25242.96042844  .00001929  00000-0  52654-3 0  9998
2 00829  60.8195 242.6173 2944531 271.3039  55.7023  9.20386565988717
Epoch: 2025-08-30T23:03Z
TLE epoch observation values (Epoch: 2025-08-30T23:03:01.017Z)
Latitude
-0.00002°
Longitude
-82.52418°
Altitude
2,353.037 km
Speed
7.063 km/s
True Right ascension
16h 10m 28s
True Declination
0° 00' 00"
Sunlit
Object was in daylight at epoch
Visualization orbit readout
Latitude
Unknown
Longitude
Unknown
Altitude
Unknown
Speed
Unknown
Apparent Right ascension
Unknown
Apparent Declination
Unknown
Sunlit
N/A
Visualization observer readout
Local Sidereal Time
02:59:14
Azimuth
Unknown
Elevation
Unknown
Doppler factor
Unknown
Orbital elements
Apogee altitude
6,071.049 km
Perigee altitude
407.342 km
Semi-major axis
9,617.332 km
Eccentricity
0.29445
Inclination
60.8195°
RAAN
242.6173°
Arg. of periapsis
271.3039°
True anomaly
88.78951°
Mean anomaly
55.7023°
Eccentric anomaly
71.72202°
Mean motion
2.30124 °/min
Orbital period
156.44 mins
BSTAR
0.00052654
Loading maneuver chart data...
Computing Atmospheric mass density...
Loading historical data...
Loading historical data...
Loading historical data...
Loading historical data...
Loading historical data...
Loading historical data...
Loading historical data...

Documentation

Showing up to 5 results
|